(456347) = 2006 TT48

Discovered at Kitt Peak on 2006-10-12 by Spacewatch.

Orbit

Orbit type: Main Belt

Note: WebGL enabled browser required.

epoch2024-03-31.0
epoch JD2460400.5
perihelion date2023-03-03.21143
perihelion JD2460006.71143
argument of perihelion (°)181.14579
ascending node (°)208.20883
inclination (°)2.81138
eccentricity0.1762152
perihelion distance (AU)2.1133051
Tisserand w.r.t. Jupiter3.4
ΔV w.r.t. Earth (km/sec)9.2
semimajor axis (AU)2.5653608
mean anomaly (°)94.45920
mean daily motion (°/day)0.23987290
aphelion distance (AU)3.017
period (years)4.11
P-vector [x]0.87161375
P-vector [y]0.45013280
P-vector [z]0.19408745
Q-vector [x]-0.48964473
Q-vector [y]0.81821297
Q-vector [z]0.30128985
absolute magnitude17.82
phase slope0.15
uncertainty0
referenceMPEC 2024-D35
observations used305
oppositions9
arc length (days)6335
first opposition used2006
last opposition used2024
residual rms (arc-secs)0.68
perturbers coarse indicatorM-v
perturbers precise indicator003Ek
first observation date used2006-10-12.0
last observation date used2024-02-15.0
computer namePan
JD of orbit computation2457425.514830
perihelion JD uncertainty (days)4.9771E-04
argument of perihelion uncertainty (°)1.5718E-04
ascending node uncertainty (°)7.7896E-05
inclination uncertainty (°)5.9186E-06
eccentricity uncertainty 3.8003E-07
perihelion distance uncertainty (AU)1.0316E-06
Minimum Orbit Intersection Distances (in AU)
for orbit epoch: 2460400.5, reference: E2024-D35
Mercury1.78096
Venus1.38994
Earth1.11854
Mars0.66075
Jupiter2.41822
Saturn6.53896
Uranus15.5197
Neptune27.6425

Observations

313 total observations over interval: 2006 10 12.38147 – 2024 02 15.325481
These data are available for download (format description).

Date (UT) J2000 RA J2000 Dec Magn Location Ref
2006 10 12.38147 03 16 57.71 +17 26 41.6   691 – Steward Observatory, Kitt Peak-Spacewatch MPS 183151
2006 10 12.39890 03 16 57.26 +17 26 37.7   691 – Steward Observatory, Kitt Peak-Spacewatch MPS 183151
2006 10 12.41632 03 16 56.74 +17 26 35.6   691 – Steward Observatory, Kitt Peak-Spacewatch MPS 183151
2006 10 16.41999 03 15 02.00 +17 10 57.6 20.6 V 691 – Steward Observatory, Kitt Peak-Spacewatch MPS 183151
2006 10 16.43741 03 15 01.38 +17 10 53.2 20.7 V 691 – Steward Observatory, Kitt Peak-Spacewatch MPS 183151
2006 10 16.45485 03 15 00.78 +17 10 48.8 20.7 V 691 – Steward Observatory, Kitt Peak-Spacewatch MPS 183151
2006 10 20.39853 03 12 40.53 +16 53 27.7 20.8 V 691 – Steward Observatory, Kitt Peak-Spacewatch MPS 183151
2006 10 20.41594 03 12 39.81 +16 53 22.8 20.6 V 691 – Steward Observatory, Kitt Peak-Spacewatch MPS 183151
2006 10 20.43336 03 12 39.07 +16 53 18.1 20.4 V 691 – Steward Observatory, Kitt Peak-Spacewatch MPS 183151
2006 10 27.34661 03 07 38.60 +16 18 53.7 20.3 V G96 – Mt. Lemmon Survey MPS 184215
2006 10 27.35661 03 07 38.10 +16 18 50.7 19.9 V G96 – Mt. Lemmon Survey MPS 184215
2006 10 27.36661 03 07 37.56 +16 18 47.4 20.0 V G96 – Mt. Lemmon Survey MPS 184215
2006 10 27.37664 03 07 37.12 +16 18 44.1 20.4 V G96 – Mt. Lemmon Survey MPS 184215
2006 10 28.29169 03 06 53.31 +16 13 52.6 20.1 V G96 – Mt. Lemmon Survey MPS 185639
2006 10 28.30142 03 06 52.81 +16 13 49.4 20.1 V G96 – Mt. Lemmon Survey MPS 185639
2006 10 28.31117 03 06 52.34 +16 13 46.1 20.2 V G96 – Mt. Lemmon Survey MPS 185639
2006 10 28.32100 03 06 51.80 +16 13 43.4 20.0 V G96 – Mt. Lemmon Survey MPS 185639
2006 11 08.40443 02 57 16.23 +15 11 54.9 19.9 R 644 – Palomar Mountain/NEAT MPS 192330
2006 11 08.42611 02 57 15.03 +15 11 47.5 20.1 R 644 – Palomar Mountain/NEAT MPS 192330
2006 11 08.44652 02 57 13.89 +15 11 39.9 20.2 R 644 – Palomar Mountain/NEAT MPS 192330
2006 11 11.28933 02 54 42.69 +14 55 39.9 20.1 V 703 – Catalina Sky Survey MPS 187117
2006 11 11.30040 02 54 42.04 +14 55 36.4 20.9 V 703 – Catalina Sky Survey MPS 187117
2006 11 11.31147 02 54 41.47 +14 55 32.4 19.9 V 703 – Catalina Sky Survey MPS 187117
2006 11 11.32252 02 54 40.82 +14 55 28.8 19.9 V 703 – Catalina Sky Survey MPS 187117
2006 11 11.40583 02 54 36.32 +14 54 59.8   291 – LPL/Spacewatch II MPS 187117
2006 11 11.40999 02 54 36.00 +14 54 58.6   291 – LPL/Spacewatch II MPS 187117
2006 11 11.41384 02 54 35.78 +14 54 57.7   291 – LPL/Spacewatch II MPS 187117
2006 11 13.25402 02 52 59.41 +14 44 43.9 19.9 V G96 – Mt. Lemmon Survey MPS 187117
2006 11 13.25843 02 52 59.16 +14 44 42.3 20.0 V G96 – Mt. Lemmon Survey MPS 187117
2006 11 13.26287 02 52 58.90 +14 44 41.0 19.8 V G96 – Mt. Lemmon Survey MPS 187117
2006 11 13.26734 02 52 58.65 +14 44 40.0 21.4 V G96 – Mt. Lemmon Survey MPS 187117
2006 11 24.26991 02 44 11.90 +13 48 48.2 20.2 V G96 – Mt. Lemmon Survey MPS 190560
2006 11 24.27679 02 44 11.65 +13 48 46.2 20.1 V G96 – Mt. Lemmon Survey MPS 190560
2006 11 24.28355 02 44 11.32 +13 48 44.7 20.3 V G96 – Mt. Lemmon Survey MPS 190560
2006 11 24.29025 02 44 11.04 +13 48 42.5 19.8 V G96 – Mt. Lemmon Survey MPS 190560
2010 09 29.35628 01 47 23.20 +12 00 55.6   691 – Steward Observatory, Kitt Peak-Spacewatch MPS 349490
2010 09 29.37400 01 47 22.57 +12 00 50.2   691 – Steward Observatory, Kitt Peak-Spacewatch MPS 349490
2010 09 29.39175 01 47 21.96 +12 00 44.6   691 – Steward Observatory, Kitt Peak-Spacewatch MPS 349490
2010 10 03.40444 01 44 52.23 +11 39 38.0 20.1 V 691 – Steward Observatory, Kitt Peak-Spacewatch MPS 349490
2010 10 03.41819 01 44 51.65 +11 39 33.4 20.3 V 691 – Steward Observatory, Kitt Peak-Spacewatch MPS 349490
2010 10 03.42845 01 44 51.22 +11 39 29.8 20.4 V 691 – Steward Observatory, Kitt Peak-Spacewatch MPS 349490
2010 10 09.37427 01 40 35.67 +11 04 09.2 20.1 V 691 – Steward Observatory, Kitt Peak-Spacewatch MPS 351288
2010 10 09.39197 01 40 34.80 +11 04 02.2 20.1 V 691 – Steward Observatory, Kitt Peak-Spacewatch MPS 351288
2010 10 09.40972 01 40 33.94 +11 03 55.6 20.2 V 691 – Steward Observatory, Kitt Peak-Spacewatch MPS 351288
2010 10 13.39345 01 37 26.93 +10 38 13.6 20.1 V 691 – Steward Observatory, Kitt Peak-Spacewatch MPS 351288
2010 10 13.41119 01 37 26.06 +10 38 06.4 19.9 V 691 – Steward Observatory, Kitt Peak-Spacewatch MPS 351288
2010 10 13.42890 01 37 25.13 +10 37 59.2 20.0 V 691 – Steward Observatory, Kitt Peak-Spacewatch MPS 351288
2010 11 05.20944 01 20 12.69 +08 10 47.2 20.4 V G96 – Mt. Lemmon Survey MPS 355419
2010 11 05.21640 01 20 12.44 +08 10 44.6 20.3 V G96 – Mt. Lemmon Survey MPS 355419
2010 11 05.22334 01 20 12.15 +08 10 42.8 20.4 V G96 – Mt. Lemmon Survey MPS 355419
2010 11 05.23037 01 20 11.90 +08 10 40.1 20.1 V G96 – Mt. Lemmon Survey MPS 355419
2010 12 12.09379 01 17 26.84 +06 59 08.5 20.9 V G96 – Mt. Lemmon Survey MPS 359002
2010 12 12.09794 01 17 26.98 +06 59 09.1 20.9 V G96 – Mt. Lemmon Survey MPS 359002
2010 12 12.10204 01 17 27.09 +06 59 10.0 20.3 V G96 – Mt. Lemmon Survey MPS 359002
2010 12 12.10622 01 17 27.20 +06 59 09.8 21.3 V G96 – Mt. Lemmon Survey MPS 359002
2014 07 27.55250 00 24 21.479 +05 39 41.29 21.8 w F51 – Pan-STARRS 1, Haleakala MPS 523691
2014 07 27.56334 00 24 21.812 +05 39 43.75 21.5 w F51 – Pan-STARRS 1, Haleakala MPS 523691
2014 07 27.57417 00 24 22.151 +05 39 46.06 21.6 w F51 – Pan-STARRS 1, Haleakala MPS 523691
2014 07 27.58493 00 24 22.471 +05 39 48.39 21.5 w F51 – Pan-STARRS 1, Haleakala MPS 523691
2014 07 29.55851 00 25 23.968 +05 46 44.92 21.4 w F51 – Pan-STARRS 1, Haleakala MPS 523691
2014 07 29.57086 00 25 24.310 +05 46 47.33 21.7 w F51 – Pan-STARRS 1, Haleakala MPS 523691
2014 07 29.58324 00 25 24.643 +05 46 49.81 21.6 w F51 – Pan-STARRS 1, Haleakala MPS 523691
2014 07 30.56864 00 25 53.250 +05 50 03.32 21.7 w F51 – Pan-STARRS 1, Haleakala MPS 523691
2014 07 30.58106 00 25 53.564 +05 50 05.53 21.5 w F51 – Pan-STARRS 1, Haleakala MPS 523691
2014 07 30.59353 00 25 53.899 +05 50 08.09 21.4 w F51 – Pan-STARRS 1, Haleakala MPS 523691
2014 07 30.60609 00 25 54.226 +05 50 10.33 21.6 w F51 – Pan-STARRS 1, Haleakala MPS 523691
2014 08 30.37829 00 27 51.00 +05 57 15.5 20.9 V 691 – Steward Observatory, Kitt Peak-Spacewatch MPS 529779
2014 08 30.40209 00 27 50.44 +05 57 11.3 20.9 V 691 – Steward Observatory, Kitt Peak-Spacewatch MPS 529779
2014 08 30.42244 00 27 49.94 +05 57 07.8 21.1 V 691 – Steward Observatory, Kitt Peak-Spacewatch MPS 529779
2014 09 03.34723 00 26 12.67 +05 43 53.9 21.0 V 691 – Steward Observatory, Kitt Peak-Spacewatch MPS 529779
2014 09 03.36753 00 26 12.05 +05 43 49.2 21.2 V 691 – Steward Observatory, Kitt Peak-Spacewatch MPS 529779
2014 09 03.38783 00 26 11.44 +05 43 44.7 20.8 V 691 – Steward Observatory, Kitt Peak-Spacewatch MPS 529779
2014 09 13.51530 00 20 21.778 +04 55 56.08 20.0 i F51 – Pan-STARRS 1, Haleakala MPS 531484
2014 09 13.52744 00 20 21.254 +04 55 52.17 20.0 i F51 – Pan-STARRS 1, Haleakala MPS 531484
2014 09 13.53964 00 20 20.729 +04 55 48.10 19.9 i F51 – Pan-STARRS 1, Haleakala MPS 531484
2014 09 13.55193 00 20 20.202 +04 55 43.72 19.9 i F51 – Pan-STARRS 1, Haleakala MPS 531484
2014 09 25.31227 00 11 33.33 +03 41 13.2 19.6 V 703 – Catalina Sky Survey MPS 533219
2014 09 25.32753 00 11 32.54 +03 41 07.0 19.3 V 703 – Catalina Sky Survey MPS 533219
2014 09 25.34277 00 11 31.87 +03 41 00.1 19.1 V 703 – Catalina Sky Survey MPS 533219
2014 09 25.35802 00 11 30.99 +03 40 54.2 19.6 V 703 – Catalina Sky Survey MPS 533219
2014 09 27.26887 00 10 00.51 +03 27 41.7 19.7 V G96 – Mt. Lemmon Survey MPS 536629
2014 09 27.27583 00 10 00.15 +03 27 38.8 19.8 V G96 – Mt. Lemmon Survey MPS 536629
2014 09 27.28279 00 09 59.81 +03 27 35.9 19.6 V G96 – Mt. Lemmon Survey MPS 536629
2014 09 27.28974 00 09 59.45 +03 27 32.9 19.4 V G96 – Mt. Lemmon Survey MPS 536629
2014 09 30.35671 00 07 34.19 +03 06 07.1 19.0 V 703 – Catalina Sky Survey MPS 536629
2014 09 30.37674 00 07 33.21 +03 05 57.6 19.8 V 703 – Catalina Sky Survey MPS 536629
2014 09 30.38676 00 07 32.66 +03 05 54.3 19.4 V 703 – Catalina Sky Survey MPS 536629
2014 10 02.27237 00 06 05.01 +02 52 40.2 21.0 V 703 – Catalina Sky Survey MPS 536629
2014 10 02.28517 00 06 04.33 +02 52 34.6 19.8 V 703 – Catalina Sky Survey MPS 536629
